FW9692 Weather Reports


time (UTC)temp
F
wind
direction
speed
knots
gust
knots
rain 1hr
in
rain 24hr
in
rain mn
in
humidity
%
barometer
mb
20260905151509 83 284 6.1 13.0 0.00 0.00 0.00 54 1000.3
20260905150016 82 266 10.4 12.2 0.00 0.00 0.00 54 1000.3
20260905144519 81 257 7.8 11.3 0.00 0.00 0.00 55 1000.5
20260905143003 81 244 8.7 12.2 0.00 0.00 0.00 56 1000.4
20260905141613 80 254 7.8 11.3 0.00 0.00 0.00 57 1000.4
20260905140104 79 262 8.7 11.3 0.00 0.00 0.00 59 1000.3
20260905134607 78 248 8.7 10.4 0.00 0.00 0.00 59 1000.3
20260905133100 77 257 6.1 7.8 0.00 0.00 0.00 60 1000.1
20260905131600 76 243 7.8 9.6 0.00 0.00 0.00 62 999.9
20260905130058 76 269 7.8 9.6 0.00 0.00 0.00 62 999.8
20260905124555 76 262 5.2 7.0 0.00 0.00 0.00 62 999.7
20260905123057 76 249 4.3 6.1 0.00 0.00 0.00 63 999.5
20260905121552 76 272 5.2 9.6 0.00 0.00 0.00 62 999.3
20260905120057 76 262 7.8 11.3 0.00 0.00 0.00 61 999.2
20260905114624 77 269 10.4 13.0 0.00 0.00 0.00 60 999.1
20260905113056 77 281 9.6 11.3 0.00 0.00 0.00 62 999.1
20260905111553 78 294 8.7 9.6 0.00 0.00 0.00 60 999.0
20260905110050 79 288 7.0 8.7 0.00 0.00 0.00 57 999.0
20260905104551 79 319 3.5 5.2 0.00 0.00 0.00 57 998.9
20260905103046 80 302 7.0 7.8 0.00 0.00 0.00 55 998.8
20260905101550 80 18 2.6 4.3 0.00 0.00 0.00 55 998.9
20260905100106 78 300 3.5 4.3 0.00 0.00 0.00 59 998.6
20260905094603 77 50 2.6 7.0 0.00 0.00 0.00 62 998.9
20260905093037 78 269 7.8 9.6 0.00 0.00 0.00 60 998.4
20260905091544 79 281 7.8 8.7 0.00 0.00 0.00 57 998.4
20260905090033 78 303 7.8 9.6 0.00 0.00 0.00 58 998.6
20260905084530 78 301 6.1 10.4 0.00 0.00 0.00 57 998.5
20260905083030 79 319 8.7 10.4 0.00 0.00 0.00 56 998.5
20260905081530 80 297 9.6 11.3 0.00 0.00 0.00 54 998.5
20260905080038 80 312 7.8 9.6 0.00 0.00 0.00 54 998.4
20260905074542 80 277 2.6 7.8 0.00 0.00 0.00 55 998.6
20260905073042 79 105 2.6 9.6 0.00 0.00 0.00 59 998.8
20260905071531 80 257 6.1 7.8 0.00 0.00 0.00 56 998.6
20260905070031 82 239 7.0 9.6 0.00 0.00 0.00 51 998.6
20260905064529 82 221 7.0 9.6 0.00 0.00 0.00 51 998.5
20260905063030 82 217 9.6 13.9 0.00 0.00 0.00 51 998.5
20260905061532 82 201 8.7 9.6 0.00 0.00 0.00 53 998.5
20260905060128 82 185 7.8 11.3 0.00 0.00 0.00 54 998.6
20260905054526 83 175 12.2 15.6 0.00 0.00 0.00 50 998.5
20260905053034 84 149 11.3 16.5 0.00 0.00 0.00 48 998.7
20260905051529 84 164 13.9 18.2 0.00 0.00 0.00 47 998.6
20260905050033 85 153 7.8 12.2 0.00 0.00 0.00 47 998.6
20260905044527 87 140 8.7 12.2 0.00 0.00 0.00 42 998.9
20260905043033 87 92 4.3 12.2 0.00 0.00 0.00 40 998.9
20260905041534 87 298 5.2 19.1 0.00 0.00 0.00 41 998.9
20260905040031 87 237 16.5 23.5 0.00 0.00 0.00 43 998.1
20260905034540 86 262 11.3 13.9 0.00 0.00 0.00 45 998.2
20260905033044 87 299 12.2 18.2 0.00 0.00 0.00 41 998.0
20260905031530 91 250 8.7 11.3 0.00 0.00 0.00 33 997.8
20260905030029 91 279 5.2 7.0 0.00 0.00 0.00 35 997.7
20260905024529 91 273 6.1 7.0 0.00 0.00 0.00 34 997.6
20260905023101 91 294 3.5 7.0 0.00 0.00 0.00 34 997.4
20260905021526 92 244 6.1 8.7 0.00 0.00 0.00 33 997.1
20260905020025 92 232 5.2 7.8 0.00 0.00 0.00 33 996.9
20260905014529 92 219 5.2 8.7 0.00 0.00 0.00 33 996.6
20260905013029 93 216 7.8 9.6 0.00 0.00 0.00 33 996.6
20260905011533 93 219 7.0 8.7 0.00 0.00 0.00 33 996.6
20260905010032 93 221 9.6 14.8 0.00 0.00 0.00 33 996.6
20260905004525 94 211 12.2 13.9 0.00 0.00 0.00 32 996.6
20260905003031 94 219 13.0 16.5 0.00 0.00 0.00 32 996.5
20260905001531 93 215 13.0 19.1 0.00 0.00 0.00 34 996.3
20260905000030 95 194 12.2 19.1 0.00 0.00 0.00 32 996.3
20260904234531 95 207 14.8 20.9 0.00 0.00 0.00 32 996.1
20260904233017 94 218 16.5 20.0 0.00 0.00 0.00 33 996.1
20260904231517 94 203 19.1 22.6 0.00 0.00 0.00 33 995.9
20260904230029 93 209 20.0 26.1 0.00 0.00 0.00 35 996.0
20260904224540 97 261 8.7 13.9 0.00 0.00 0.00 28 995.8
20260904223045 97 240 4.3 13.0 0.00 0.00 0.00 28 995.9
20260904221533 98 166 7.8 15.6 0.00 0.00 0.00 27 996.1
20260904220021 97 61 1.7 12.2 0.00 0.00 0.00 28 996.3
20260904214508 98 313 2.6 13.9 0.00 0.00 0.00 28 996.4
20260904213015 97 257 1.7 11.3 0.00 0.00 0.00 28 996.5
20260904211511 97 293 6.1 13.0 0.00 0.00 0.00 28 996.6
20260904210012 97 153 7.8 16.5 0.00 0.00 0.00 28 996.8
20260904204507 96 212 8.7 13.9 0.00 0.00 0.00 31 997.0
20260904203100 96 155 7.0 13.9 0.00 0.00 0.00 31 997.2
20260904201557 96 241 11.3 17.4 0.00 0.00 0.00 30 997.5
20260904200058 96 229 9.6 20.0 0.00 0.00 0.00 31 997.6
20260904194558 96 173 1.7 10.4 0.00 0.00 0.00 31 997.9
20260904193047 94 162 7.0 16.5 0.00 0.00 0.00 31 998.2
20260904191543 95 208 7.8 13.0 0.00 0.00 0.00 31 998.3
20260904190010 94 249 3.5 9.6 0.00 0.00 0.00 31 998.6
20260904184517 94 270 2.6 13.0 0.00 0.00 0.00 32 998.8
20260904183050 94 261 2.6 10.4 0.00 0.00 0.00 32 999.0
20260904181555 93 229 8.7 13.9 0.00 0.00 0.00 33 999.1
20260904180100 93 184 4.3 8.7 0.00 0.00 0.00 34 999.3
20260904174602 92 261 2.6 7.8 0.00 0.00 0.00 35 999.6
20260904173050 91 225 6.1 13.0 0.00 0.00 0.00 36 999.8
20260904171548 91 261 4.3 11.3 0.00 0.00 0.00 37 999.9
20260904170139 90 249 6.1 13.0 0.00 0.00 0.00 38 1000.1
20260904164537 90 279 7.8 13.9 0.00 0.00 0.00 39 1000.0
20260904163049 89 305 7.8 16.5 0.00 0.00 0.00 40 1000.1
20260904161529 88 263 9.6 14.8 0.00 0.00 0.00 42 1000.0
20260904160026 87 299 7.0 12.2 0.00 0.00 0.00 45 1000.0
20260904154528 86 305 11.3 15.6 0.00 0.00 0.00 46 999.9
20260904153048 85 275 13.9 17.4 0.00 0.00 0.00 47 999.8